Hlavní strana
METAR-TAF:

METAR-TAF

Letiště :

Sparta Community Airport (Hunter Field)

Sparta, Illinois, Spojené státy americké

zeměpisná šířka: 38-08-56N, zeměpisná délka: 089-41-55W, výška: 164 m

Aktuální stav počasí

Zpráva byla vytvořena před 19 minutami, v 10:15 UTC
Jižní vítr 5 kt
Teplota 1°C
Vlhkost vzduchu 100%
Tlak 1011 hPa
Viditelnost: 16.1 km
Zataženo ve výšce 1300 ft

METAR: KSAR 241015Z AUTO 19005KT 10SM OVC013 01/01 A2985 RMK AO2 T00100010

Čas: 04:34 (10:34 UTC)


TAF: chybějící

Stav a předpovědi počasí z více než 4 000 letišť (zprávy METAR a TAF).

Červené a žluté tečky na mapě představují dostupné meteorologické stanice.

Když kurzor umístíte na tečku, zobrazí se název stanice.

Pak kliknutím zobrazíte stav a předpověď počasí.

Chcete-li změnit mapu, kliknutím na zelené tlačítko se znaménkem +mapu přiblížíte, kliknutím na zelené tlačítko se znaménkem – mapu oddálíte a kliknutím na zelené šipky přejdete na sousední mapy.


METAR-TAF: